Weather in Leninskoe

Russia / Kirov Oblast     58°18′55″N   47°05′18″E
temp.,
°C
wind,
m/s
gust,
m/s
humid.,
%
clouds,
%
prec.,
mm/h
press.,
hPa
HPBL,
m
8 december, wed
wed800:00−8se61693100 1.5 1025770
03:00−8se61493100 3.6 1023705
06:00−7se51294100 1.8 1021572
09:00−6se41195100 3.4 1020462
12:00−4se3896100 1.0 1019322
15:00−2se2898100 2.1 1019298
18:000ssw3899100 1.3 1020488
21:000ssw2699100 2.3 1020414
9 december, thu
thu900:000sw1499100 1.3 1021385
03:00−3nnw2398100 3.5 1022146
06:00−5n2497100 1.6 1022175
09:00−6nnw2596100 3.6 1022193
12:00−7nnw3696100 2.6 1023235
15:00−7nnw3696100 5.1 1023290
18:00−11nnw389662 0.4 1025186
21:00−17nnw279828 0.4 1027115
10 december, fri
fri1000:00−20nnw269916 0.0 102998
03:00−21nnw269917 0.0 103095
06:00−22nnw269916 0.0 103284
09:00−21n279815 0.0 103499
12:00−15n27935 0.0 1034154
15:00−18nw119912 0.0 10369
18:00−18n259944 0.0 103870
21:00−20n2310019 0.0 103947
11 december, sat
sat1100:00−21nne1310017 0.0 104033
03:00−23n1110023 0.0 10419
06:00−22nne1110020 0.0 104210
09:00−21nnw111005 0.0 10439
12:00−12nw119022 0.0 104350
15:00−16nw11977 0.0 10439
18:00−19nnw119815 0.0 10449
21:00−20nnw119822 0.0 10449
12 december, sun
sun1200:00−20sw11975 0.0 10459
03:00−20ssw11975 0.0 10459
06:00−20ssw11985 0.0 10459
09:00−19sse2397100 0.0 104542
12:00−11s2988100 0.0 1043195
15:00−11s2892100 0.0 1043148
18:00−12ssw289236 0.0 1042134
21:00−12ssw2109176 0.0 1041183